This is the latest recevied weather packets stored in our database for station/object LZ1HCO-25. If no packets are shown the sender has not sent any weather packets the latest 10 day(s).
| Time | Temp. | Humidity | Pressure | Rain* | Wind** | Luminosity | Snow |
|---|---|---|---|---|---|---|---|
| 1777709316 | 14.44° C | 75% | 975 hPa | - | - | 0 W/m² | - |
| 1777709004 | 13.89° C | 75% | 975 hPa | - | - | 0 W/m² | - |
| 1777708693 | 13.89° C | 81% | 975 hPa | - | - | 0 W/m² | - |
| 1777708382 | 13.89° C | 82% | 975 hPa | - | - | 0 W/m² | - |
| 1777708070 | 13.33° C | 79% | 975 hPa | - | - | 0 W/m² | - |
| 1777707759 | 13.33° C | 80% | 975 hPa | - | - | 0 W/m² | - |
| 1777707448 | 14.44° C | 81% | 975 hPa | - | - | 0 W/m² | - |
| 1777707136 | 14.44° C | 84% | 975 hPa | - | - | 0 W/m² | - |
| 1777706825 | 13.89° C | 85% | 975 hPa | - | - | 0 W/m² | - |
| 1777706513 | 12.22° C | 83% | 975 hPa | - | - | 0 W/m² | - |
| 1777706202 | 12.78° C | 88% | 975 hPa | - | - | 0 W/m² | - |
| 1777705891 | 13.33° C | 90% | 975 hPa | - | - | 0 W/m² | - |
| 1777705580 | 12.78° C | 86% | 975 hPa | - | - | 0 W/m² | - |
| 1777705268 | 12.78° C | 88% | 975 hPa | - | - | 0 W/m² | - |
| 1777704957 | 12.22° C | 90% | 976 hPa | - | - | 0 W/m² | - |
| 1777704645 | 11.67° C | 84% | 975 hPa | - | - | 0 W/m² | - |
| 1777704334 | 12.22° C | 83% | 975 hPa | - | - | 0 W/m² | - |
| 1777704023 | 12.22° C | 88% | 975 hPa | - | - | 0 W/m² | - |
| 1777703711 | 12.78° C | 91% | 975 hPa | - | - | 0 W/m² | - |
| 1777703400 | 11.67° C | 90% | 975 hPa | - | - | 0 W/m² | - |
| 1777703088 | 12.22° C | 88% | 975 hPa | - | - | 0 W/m² | - |
| 1777702777 | 12.22° C | 99% | 975 hPa | - | - | 0 W/m² | - |
| 1777702466 | 11.67° C | 99% | 976 hPa | - | - | 0 W/m² | - |
| 1777702154 | 11.11° C | 99% | 976 hPa | - | - | 0 W/m² | - |
| 1777701843 | 11.11° C | 99% | 976 hPa | - | - | 0 W/m² | - |
* Rain since midnight (hover to see other rain measurements)
** Current wind speed in m/s (hover to see current wind gust speed)